Theta_e
295 295 295 294 294 295 295 294 293 293 294 294 293 293 294 294 294 294 294 294 294 294 294 294 293 291 289 288 287 287 286 286 285 285 285 285 285 284 284 284 284 284 284 283 283 283 283 283 284 285 286 284 283 282 282 281 280 281 281 282 282 281 281 281 281 281 281 280 280
295 294 294 293 293 294 295 294 293 294 294 294 294 294 294 294 294 294 294 294 294 294 294 293 291 289 288 287 287 287 286 286 286 285 285 285 284 284 284 283 283 283 283 283 283 283 284 283 284 285 286 284 283 282 282 281 280 281 282 282 281 281 281 282 282 281 281 280 279
295 295 294 294 294 295 295 294 294 294 294 294 294 294 294 294 294 294 294 294 293 293 292 292 290 289 288 288 287 286 286 286 286 285 285 284 284 283 283 283 283 283 283 283 283 283 283 282 284 285 285 285 283 283 282 281 280 281 282 281 281 281 282 283 282 281 280 281 279
295 295 294 294 295 295 295 294 294 294 294 294 294 294 294 294 294 293 293 292 291 291 291 291 290 289 288 288 287 286 285 285 285 285 284 284 284 283 283 283 283 283 283 283 283 282 282 282 283 284 284 283 282 282 282 281 280 280 281 281 281 281 282 283 282 281 281 281 279
295 295 295 295 295 295 295 295 294 294 294 294 294 294 293 293 292 292 291 291 291 292 291 290 290 289 288 288 287 286 285 284 284 284 284 284 283 283 283 283 283 283 282 282 282 282 282 282 284 284 283 282 283 282 281 279 280 280 281 281 281 281 282 282 282 281 281 280 279
295 295 295 295 295 295 295 295 294 294 294 294 293 293 292 292 292 291 291 292 291 290 290 289 289 288 287 287 287 286 285 284 284 284 284 284 283 283 283 283 282 282 282 282 282 282 282 282 284 283 282 282 281 280 278 278 280 280 280 281 281 281 281 281 281 281 280 280 279
295 295 294 294 294 294 294 294 294 294 293 293 293 292 291 291 291 291 291 291 290 289 289 289 289 288 288 287 287 286 285 284 284 284 284 284 283 283 283 283 282 282 282 282 282 281 281 281 283 284 283 283 282 280 278 278 280 280 281 281 281 280 279 279 279 280 279 279 279
295 294 294 294 294 294 294 294 294 293 293 293 292 292 291 291 290 290 290 290 290 289 289 289 289 289 288 288 287 286 285 285 284 284 284 284 284 283 283 282 282 282 282 281 281 281 281 281 283 283 282 282 283 281 278 278 279 280 280 280 280 279 278 276 276 277 278 278 278
294 293 293 293 293 293 293 294 293 293 293 292 292 291 291 291 290 290 290 290 290 289 289 288 288 288 287 287 287 286 286 286 285 285 284 284 284 283 283 282 282 282 282 281 281 281 281 282 283 282 282 283 282 281 279 279 280 280 280 280 279 278 277 276 275 276 277 277 278
293 292 292 292 292 292 292 292 292 292 292 292 291 291 290 290 290 291 291 291 289 288 288 287 287 286 286 286 287 287 286 286 286 285 284 284 284 284 283 282 283 283 282 281 281 281 282 282 282 281 281 281 281 280 280 280 280 281 280 280 279 277 276 275 275 275 276 277 278
292 292 292 292 291 291 291 291 291 291 291 291 290 290 290 290 290 290 290 289 288 287 287 286 286 286 287 287 287 287 286 286 286 286 285 284 283 283 283 283 283 283 283 282 282 281 282 282 281 281 281 280 280 280 280 280 280 280 280 278 277 277 276 275 274 275 275 276 277
291 291 291 291 291 291 291 291 290 290 290 290 289 289 289 289 289 289 288 287 288 287 287 286 287 287 287 287 287 286 286 285 285 285 285 284 283 283 283 283 284 284 284 283 282 282 281 281 281 281 281 280 279 280 280 280 280 280 279 277 276 276 277 276 275 274 274 274 276
291 291 290 290 290 290 290 290 290 289 289 289 289 289 289 289 288 288 287 288 288 288 287 286 286 287 287 287 286 286 285 285 285 285 285 284 284 284 284 284 284 285 285 284 283 282 281 281 281 281 281 280 279 279 279 280 280 280 279 278 277 277 277 276 275 274 274 274 276
290 290 290 289 289 289 290 289 289 289 289 289 289 289 289 288 287 287 288 288 288 288 287 286 286 286 287 287 287 286 285 285 285 285 284 284 284 284 284 285 285 285 284 283 283 282 282 281 281 281 281 281 280 279 278 279 279 279 279 278 278 277 277 276 275 274 275 275 276
290 290 289 289 289 289 289 289 289 289 289 289 289 289 289 288 287 287 288 289 288 287 287 286 286 285 285 286 286 286 285 285 284 284 284 284 284 284 285 285 285 284 284 283 283 282 282 282 281 281 281 281 280 279 278 278 278 278 278 278 278 278 277 276 275 275 275 276 276
290 289 289 289 289 289 289 289 290 289 289 289 289 288 288 288 287 287 287 288 287 287 287 287 286 285 285 285 286 286 286 285 285 284 284 284 284 284 284 285 284 284 284 283 283 282 282 281 281 281 281 281 279 278 277 277 277 278 278 278 278 277 277 276 276 275 275 275 275
290 289 289 289 289 289 289 290 290 290 289 289 288 288 288 288 287 287 287 287 287 287 286 286 286 285 285 284 285 285 285 285 285 285 285 285 284 284 284 284 284 284 284 283 283 282 281 281 280 280 280 280 279 278 277 277 277 277 277 277 277 277 277 276 275 275 274 274 275
290 290 289 289 289 289 289 290 290 290 289 289 288 288 288 288 288 287 287 286 287 287 286 286 285 285 285 285 284 285 286 286 285 285 285 286 285 285 285 285 284 284 283 283 283 282 281 280 280 279 279 279 278 277 277 277 277 277 277 277 276 276 276 275 274 274 274 274 274
290 290 290 290 290 290 290 289 289 289 289 289 288 288 288 287 287 287 286 285 286 287 287 286 285 285 285 286 285 285 285 286 286 286 286 285 285 285 285 285 284 283 282 282 282 281 281 280 280 279 279 278 278 277 277 277 277 277 277 277 276 276 275 274 274 273 273 274 274
291 291 291 291 291 290 290 290 290 289 289 288 288 287 287 287 287 287 287 286 286 287 287 287 286 285 285 285 285 285 285 286 286 286 285 285 285 284 285 284 283 282 282 281 281 281 280 280 280 280 280 279 279 278 277 277 277 276 276 276 275 275 275 274 274 273 273 273 273
291 291 291 291 291 290 290 290 290 289 288 288 287 287 287 287 287 287 287 287 286 286 286 286 286 286 285 285 285 286 286 285 285 285 285 284 284 284 283 283 282 281 281 281 281 281 280 280 280 280 280 280 280 279 277 277 276 275 275 274 275 275 275 274 273 272 272 271 271
292 292 292 291 291 291 291 290 289 289 288 287 287 287 287 287 287 287 287 286 286 285 286 286 286 286 286 286 286 286 286 285 285 285 284 284 284 283 282 282 281 281 281 281 281 281 281 281 281 281 281 280 279 278 278 277 275 275 274 274 275 275 274 273 272 271 271 271 270
292 292 292 291 291 291 290 290 289 288 287 287 287 287 287 287 287 287 286 286 285 285 285 286 286 286 287 287 287 287 287 286 285 284 283 283 282 282 281 281 281 281 281 281 281 281 281 281 281 281 280 280 279 278 277 277 276 275 274 275 275 275 273 272 271 270 270 270 270
292 292 291 291 291 290 290 289 288 288 287 287 287 287 287 287 287 286 285 285 285 285 285 286 286 286 287 287 287 287 287 286 285 284 283 282 281 281 281 281 282 282 282 282 282 283 283 282 281 280 280 279 278 277 277 276 276 275 275 275 275 274 273 271 270 270 270 269 269
292 292 291 291 290 290 289 289 288 288 288 288 288 287 287 286 286 285 285 284 285 285 285 286 286 286 286 286 287 287 287 287 286 285 283 282 281 281 281 281 282 282 283 283 285 286 285 284 283 281 280 279 278 277 276 276 275 275 276 276 275 273 272 272 270 270 270 269 269
292 291 291 290 290 289 289 289 289 289 289 288 288 287 286 286 285 285 285 285 285 285 286 286 286 286 286 286 287 286 286 286 285 285 284 283 282 282 282 282 282 283 284 285 287 287 287 287 285 283 280 279 278 277 276 275 275 275 275 275 274 273 272 272 271 271 270 270 269
291 291 290 290 289 289 289 289 290 290 289 288 288 287 286 286 286 285 285 285 285 285 286 286 287 286 287 287 287 286 286 285 285 285 284 284 283 283 282 282 283 283 284 286 288 288 288 288 287 284 281 279 278 278 277 275 275 274 274 273 272 272 272 272 272 272 271 271 269
291 290 290 289 289 289 289 289 290 290 289 288 288 287 286 286 286 286 286 286 286 286 286 287 287 287 287 287 287 286 286 285 285 284 284 284 284 283 283 282 282 283 285 288 288 289 288 288 287 286 283 280 278 278 276 275 275 274 273 272 271 271 271 272 271 271 271 271 270
290 290 290 289 289 289 289 289 290 290 289 288 287 287 286 286 286 287 287 287 287 287 287 287 287 287 287 286 286 286 285 285 284 284 284 283 283 283 283 282 282 283 286 288 289 289 289 288 288 286 285 282 279 277 276 275 275 274 272 271 270 270 270 271 270 270 270 270 270
290 290 290 289 290 290 290 290 290 290 289 288 287 287 287 287 287 287 287 288 288 288 288 288 287 287 286 286 285 285 285 285 284 284 284 284 283 283 282 282 282 284 286 289 289 289 289 289 288 287 286 284 279 276 275 274 273 273 272 271 270 270 270 270 270 270 269 269 269
290 290 290 290 290 290 290 290 290 289 288 288 287 287 287 287 287 288 288 288 288 288 287 287 287 287 286 286 285 285 285 284 284 284 284 284 284 283 283 282 282 283 286 289 289 289 289 289 288 287 286 285 279 276 273 272 272 272 272 272 271 270 270 270 269 269 269 269 269
290 290 290 290 290 290 290 290 289 288 288 287 287 288 288 288 288 288 288 288 288 288 287 287 287 287 287 286 286 286 286 285 284 284 284 284 284 283 282 282 282 283 286 289 289 289 289 289 288 287 286 285 280 275 272 272 271 271 271 271 271 271 271 271 270 270 270 270 270
290 290 290 290 290 290 290 289 288 288 288 288 288 288 288 288 288 288 287 288 288 288 289 289 289 289 289 289 288 288 287 286 285 284 284 284 283 283 282 282 282 284 286 289 289 289 289 289 288 287 287 285 279 274 271 271 271 270 270 270 270 270 270 270 271 271 270 270 270
290 290 291 291 290 290 289 288 288 287 288 287 288 288 288 288 288 288 288 288 289 289 290 290 290 290 290 289 289 288 287 285 285 284 283 283 283 283 282 282 283 285 287 288 289 289 289 289 288 287 287 285 278 273 271 271 270 270 270 270 270 269 269 269 270 270 270 269 269
291 291 291 290 290 289 288 287 287 287 288 288 288 288 288 288 288 288 289 289 290 290 290 289 289 288 288 287 287 287 286 285 285 284 283 282 282 283 283 284 284 285 287 288 289 289 289 288 288 288 286 284 277 272 271 271 271 270 270 270 270 269 269 269 269 269 268 268 268
291 291 291 290 289 288 288 287 287 287 288 288 288 289 289 289 289 289 290 290 291 290 289 288 288 288 287 287 286 286 286 286 285 284 282 282 283 283 284 285 285 286 288 288 288 289 289 288 288 288 286 282 275 271 271 271 271 271 270 270 270 270 269 269 269 269 268 268 268
291 291 290 290 289 288 287 288 288 288 288 289 289 289 290 290 290 291 291 292 292 291 290 289 289 289 288 288 287 287 286 286 285 284 283 282 284 285 286 287 287 287 287 288 288 288 288 288 288 287 285 279 273 271 271 271 271 270 270 270 270 270 269 269 269 268 268 268 268
290 290 290 290 289 288 288 288 288 289 289 290 290 291 291 292 292 292 292 292 292 292 291 290 290 289 289 288 288 287 286 285 285 284 284 284 286 287 287 288 287 286 285 287 288 288 288 288 288 287 284 278 274 272 272 271 271 270 270 270 270 270 269 268 267 267 267 268 270
290 290 290 290 289 288 288 289 289 289 290 291 291 292 292 293 293 293 293 292 292 292 291 291 290 289 288 288 287 286 285 285 286 286 287 287 288 288 288 288 286 284 284 285 287 288 288 288 288 288 285 280 275 273 273 272 271 270 270 270 270 270 269 267 267 266 267 267 273
289 290 290 290 289 289 289 289 290 290 291 292 292 293 293 293 293 292 292 292 292 292 291 290 289 288 287 287 286 286 286 287 287 288 288 289 289 289 288 286 284 282 282 284 286 288 288 288 288 288 286 281 276 274 273 272 271 271 270 270 270 270 270 268 267 266 266 266 271
289 290 290 290 290 290 290 291 291 292 292 293 293 293 293 292 292 292 291 291 290 290 289 289 288 287 286 286 287 287 288 288 289 289 288 287 286 286 286 283 282 280 280 282 286 287 288 288 288 288 287 282 276 274 273 272 272 271 271 271 271 271 271 270 268 267 267 266 267
Wind_Speed
8 8 7 7 7 6 6 5 6 6 7 8 8 8 7 7 7 7 6 6 6 6 6 6 5 4 4 6 6 6 5 4 4 3 3 3 2 2 2 2 2 2 2 2 2 2 2 2 2 2 1 1 1 1 1 1 2 2 2 2 2 3 3 4 4 4 4 4 3
9 9 8 7 7 6 6 5 6 6 6 7 7 8 8 7 7 7 7 7 6 5 5 4 4 5 6 6 6 6 6 5 5 4 3 3 3 3 3 3 2 2 2 2 2 2 2 3 2 2 2 1 1 1 1 1 1 2 3 3 2 2 3 3 4 4 4 4 3
10 9 8 8 8 7 7 6 7 8 8 7 6 7 7 6 6 6 6 6 5 5 4 4 4 5 6 7 5 5 5 5 5 5 4 3 3 3 3 3 3 3 3 3 3 3 3 3 3 2 2 2 2 1 1 1 1 2 2 3 2 2 2 3 3 3 3 3 3
10 10 10 10 11 10 9 8 9 9 9 7 6 6 5 5 4 4 4 5 5 4 4 4 5 5 6 7 6 5 4 4 5 5 5 4 4 4 4 4 3 3 3 3 3 3 3 3 2 2 2 2 2 2 2 2 2 2 2 2 1 2 2 2 2 2 2 2 2
11 10 10 10 12 11 10 9 10 10 8 6 5 5 4 3 2 3 3 4 4 4 5 5 5 5 6 6 7 6 5 4 5 5 5 4 4 4 4 4 4 4 4 3 3 3 3 3 2 2 2 2 2 2 2 2 3 2 1 1 1 1 1 2 1 2 2 2 1
11 11 10 10 11 10 9 8 10 9 8 6 6 5 4 3 3 3 4 5 5 5 6 6 6 6 6 6 7 6 5 5 4 5 5 5 4 4 4 4 4 4 3 3 3 3 3 3 2 2 2 2 2 2 2 3 3 2 2 1 1 1 1 1 1 1 1 1 1
12 12 11 10 10 9 8 8 9 8 7 6 7 7 6 5 5 5 6 5 5 5 6 6 6 7 7 7 6 6 6 5 5 4 5 5 4 4 4 4 3 3 3 3 3 3 3 3 2 2 2 2 2 2 2 2 3 3 2 2 1 1 1 1 1 1 1 2 1
11 11 11 11 11 10 10 9 9 8 7 7 8 8 8 8 8 7 7 6 6 6 6 6 7 8 8 8 7 7 6 6 5 5 4 5 5 5 4 4 3 3 3 3 3 3 3 3 2 2 2 2 2 2 2 3 3 3 3 2 1 1 1 1 1 2 2 2 2
9 10 10 10 10 10 10 10 10 10 9 8 8 9 9 9 9 8 8 6 6 6 7 6 7 8 9 8 8 7 7 7 6 6 5 5 5 5 4 4 3 3 3 3 3 4 4 3 2 2 2 2 2 3 3 4 4 4 3 2 1 1 1 1 2 2 2 3 2
10 10 9 9 9 9 9 9 10 10 10 10 9 9 9 9 9 9 8 6 7 7 7 7 7 8 8 9 8 8 7 7 7 6 6 5 6 6 5 5 5 4 3 3 3 4 4 3 3 2 2 2 3 3 4 4 4 4 3 2 2 1 1 1 1 2 2 2 3
11 10 10 9 9 9 9 9 8 9 9 9 9 9 9 9 9 8 7 7 7 8 8 8 8 9 9 8 8 8 7 7 7 7 7 7 6 6 6 6 6 6 5 5 4 4 4 4 3 3 3 2 3 3 4 4 4 4 3 1 2 2 1 1 1 1 2 2 2
11 10 9 9 9 9 9 8 8 7 8 9 9 9 9 9 8 8 7 8 9 9 9 8 9 9 9 8 8 7 7 7 7 7 7 7 7 6 6 6 6 6 7 7 5 5 4 4 4 4 4 3 2 3 4 4 4 4 3 2 2 2 2 1 1 1 1 2 2
9 9 8 8 8 8 8 8 7 7 7 8 9 9 9 8 8 8 9 10 10 9 8 7 8 9 9 8 8 7 7 7 7 7 7 7 6 6 6 6 6 7 7 7 6 5 5 5 5 5 5 4 3 3 3 4 4 4 4 3 2 2 2 2 2 2 2 2 1
8 9 8 8 8 8 8 8 7 7 8 9 9 9 9 8 8 9 10 11 10 9 8 7 7 7 7 8 8 8 8 7 7 7 7 6 6 6 6 6 7 7 6 6 6 6 6 6 6 6 6 5 4 4 4 4 4 4 4 4 3 3 3 3 3 3 3 2 2
8 9 9 9 9 8 8 8 7 7 8 9 9 9 9 8 8 8 9 10 9 9 8 8 7 6 6 8 8 9 8 7 7 7 7 6 6 6 7 7 7 7 6 6 6 6 7 6 6 6 6 5 5 4 4 4 4 4 4 5 4 4 4 4 4 3 3 3 2
9 9 9 9 9 9 9 9 8 8 8 9 9 9 8 8 7 7 8 9 8 7 7 8 8 7 6 6 8 8 8 8 7 7 7 6 7 7 7 7 7 7 7 6 6 6 5 5 4 4 4 5 4 4 4 4 4 4 4 4 4 4 4 4 4 4 4 4 3
9 10 10 10 11 11 10 10 9 9 9 9 9 9 8 7 7 7 7 8 7 7 8 9 8 7 6 6 6 7 8 8 7 7 7 8 8 8 8 8 8 7 7 7 7 6 5 4 3 3 3 4 4 4 5 5 4 4 4 4 4 4 4 5 5 5 4 4 3
10 10 11 11 12 13 12 12 10 10 10 10 9 8 8 7 7 7 7 7 8 9 9 9 8 8 8 8 6 6 7 8 8 8 8 8 8 8 8 8 7 7 6 6 7 6 6 4 3 3 3 3 4 4 4 4 4 4 4 4 4 4 4 4 5 5 5 4 4
11 11 12 13 13 14 13 13 12 11 10 10 8 8 7 7 8 8 7 7 8 9 10 10 9 8 8 9 7 7 7 7 8 9 8 8 8 8 8 7 6 5 5 5 5 5 5 5 4 4 4 3 3 3 3 4 4 4 4 4 4 4 4 4 4 4 4 4 4
12 13 13 14 14 14 13 13 12 11 9 8 8 8 8 8 8 9 9 8 8 9 10 10 9 8 8 8 8 7 7 6 8 8 8 7 7 7 7 6 5 4 4 4 4 5 5 5 5 5 5 5 5 4 4 4 4 4 4 4 4 4 4 3 4 4 4 3 3
13 14 14 14 13 13 12 12 11 9 8 8 8 9 9 8 9 9 10 10 9 8 8 9 9 9 8 8 8 8 7 6 7 7 7 6 6 6 5 4 4 4 4 4 4 5 5 6 6 6 6 6 6 6 6 5 5 4 4 3 3 3 3 3 3 3 3 3 3
13 13 13 13 12 12 11 10 9 9 8 8 9 9 9 9 9 9 9 8 7 7 7 7 8 9 9 9 9 9 7 5 5 5 4 4 4 4 4 4 4 4 4 5 5 5 6 6 6 6 7 7 7 7 7 7 6 5 4 3 3 3 2 2 2 3 3 3 3
13 12 12 12 12 11 11 10 9 8 8 8 8 9 9 9 9 8 7 6 6 6 6 6 7 8 9 10 9 9 7 6 5 3 3 3 3 3 3 4 5 5 5 5 6 6 6 6 6 6 7 7 7 7 7 7 7 6 6 5 4 3 2 2 2 2 3 3 3
13 12 11 10 11 11 10 9 9 9 9 9 9 9 9 9 8 7 6 6 6 6 6 6 6 7 8 8 8 8 7 7 6 4 3 2 2 3 3 4 5 5 6 5 6 6 7 6 6 6 6 6 6 7 7 7 7 7 7 6 5 4 3 2 2 2 3 3 3
12 11 10 9 10 10 10 10 10 10 10 9 9 8 8 7 7 6 6 6 7 7 7 6 6 5 5 6 6 6 7 7 7 6 4 3 3 3 3 4 4 4 4 4 7 9 9 7 6 6 6 5 6 6 6 6 7 7 7 6 6 4 3 2 2 2 3 3 3
10 10 10 9 9 10 10 11 11 11 10 9 8 7 6 6 6 6 6 7 7 7 7 6 5 5 4 5 5 5 5 5 6 6 6 5 4 4 3 3 4 3 4 5 8 10 10 9 8 7 6 6 6 6 6 5 6 6 6 6 6 5 4 3 2 2 3 3 3
9 9 9 9 9 9 10 11 11 10 9 8 8 7 6 5 6 6 6 7 6 6 6 5 5 4 4 5 5 5 5 4 4 5 5 6 5 5 4 4 4 4 4 7 9 10 10 10 10 9 8 6 6 6 6 5 5 5 5 6 5 5 5 4 4 3 3 2 3
9 9 9 8 8 9 10 10 10 10 9 8 8 7 6 6 6 7 6 6 5 5 5 5 4 4 4 4 5 5 5 4 4 4 4 5 5 5 5 5 4 5 6 8 10 10 11 11 11 11 10 8 7 6 6 6 6 5 5 5 5 5 5 5 4 4 3 3 3
9 9 8 8 9 9 9 9 10 10 9 8 7 7 6 6 7 7 7 6 6 6 5 5 4 3 3 4 4 4 4 4 3 3 3 4 4 4 5 5 5 5 7 9 10 11 11 11 12 12 12 11 7 6 6 6 6 5 5 5 5 5 5 5 5 4 4 4 3
9 9 9 9 9 9 9 9 10 9 8 6 7 7 7 7 7 7 7 7 7 6 6 5 4 4 4 4 4 3 3 3 3 3 4 4 4 5 5 5 5 5 7 9 10 11 11 12 12 13 13 12 8 6 5 5 5 5 5 5 5 6 6 6 5 5 5 4 4
9 9 9 10 9 9 9 9 9 8 7 6 7 7 7 7 8 7 7 7 6 5 4 5 5 5 5 4 4 4 4 4 4 4 4 5 5 5 5 5 5 5 6 9 10 11 12 12 13 14 14 13 9 7 6 6 6 6 6 6 6 7 7 6 6 6 6 6 5
10 10 10 10 10 10 9 8 7 7 7 7 8 8 8 8 7 6 6 5 5 5 5 5 6 6 5 4 4 4 4 4 4 4 4 5 5 4 4 4 4 5 6 9 10 11 12 14 14 15 14 13 9 7 6 6 6 6 6 6 7 8 7 6 6 7 8 8 7
10 10 11 11 10 9 8 7 7 7 7 7 7 8 7 7 5 5 5 5 5 6 6 7 7 7 6 5 4 4 4 4 4 4 5 5 4 4 3 3 4 4 6 9 11 12 14 15 15 15 14 13 9 7 6 6 5 5 5 5 6 7 7 7 7 7 8 8 7
10 10 10 10 9 8 7 7 7 7 7 7 7 7 7 6 6 5 5 5 5 5 6 6 6 5 5 4 4 4 3 3 4 4 4 4 4 4 4 3 3 5 7 10 12 14 15 16 15 15 14 12 8 6 6 6 5 4 4 5 5 5 6 7 7 7 7 7 7
10 10 9 9 8 8 7 7 7 7 8 8 7 7 7 6 7 6 6 5 5 4 4 4 4 4 4 3 3 3 4 4 4 4 4 4 4 4 4 4 4 6 8 11 14 16 16 16 15 14 13 10 7 6 6 6 5 5 5 6 6 6 6 6 6 6 6 6 6
9 9 9 8 8 8 8 8 8 8 8 8 8 7 7 6 6 6 6 6 5 5 5 4 4 4 3 3 3 3 4 4 4 4 4 5 5 4 4 4 4 7 10 13 15 16 16 15 15 14 12 9 6 5 5 5 5 6 6 6 6 7 7 7 6 6 5 5 6
8 8 8 8 8 8 8 8 8 8 8 8 8 7 7 7 6 6 6 6 6 5 5 5 4 4 4 4 3 3 4 4 4 4 5 5 5 4 4 5 6 8 10 13 15 15 16 16 15 14 12 7 5 5 5 4 4 5 5 6 7 7 7 6 5 5 5 5 6
8 8 8 9 8 8 8 8 8 8 8 7 7 7 7 7 6 6 6 5 6 5 5 4 4 4 4 4 4 4 4 4 4 4 5 5 5 5 5 6 7 8 10 12 13 15 16 17 17 15 12 7 6 6 5 5 5 5 5 6 6 6 5 4 4 4 5 6 7
8 8 9 9 8 8 7 7 7 7 7 7 6 7 7 7 6 5 5 5 5 5 5 4 4 4 4 4 4 3 3 4 4 4 4 5 5 6 7 8 8 9 9 10 12 14 16 18 18 17 14 9 7 6 6 5 5 5 5 6 6 5 5 4 3 4 5 6 9
8 8 8 8 8 8 7 7 7 6 6 7 7 7 7 7 5 5 5 4 5 5 5 5 4 4 4 4 4 3 3 3 4 4 5 6 6 7 8 8 9 9 9 10 12 15 17 18 18 18 15 9 8 6 5 5 5 5 6 6 6 5 5 5 4 4 4 6 8
7 7 7 7 7 8 8 7 7 6 6 7 7 6 6 6 5 4 4 4 4 4 4 4 4 4 4 4 4 4 4 4 5 5 6 6 7 8 8 7 8 9 8 9 12 15 17 19 19 19 16 10 7 6 5 5 5 6 6 7 6 6 5 5 4 4 5 5 6
Wind_Direction
167 169 170 169 168 168 167 166 166 167 168 169 172 175 177 176 175 176 177 178 178 176 175 176 177 170 158 151 154 159 164 165 163 161 159 158 155 149 142 134 131 130 131 134 136 142 145 148 150 155 159 159 162 171 182 175 158 162 166 174 176 170 164 163 172 178 184 192 193
170 170 169 168 167 165 164 164 168 172 174 175 175 176 178 179 177 176 178 182 179 173 168 168 163 154 150 153 157 161 165 168 167 163 157 153 148 142 137 135 132 133 137 143 150 153 157 156 159 164 169 161 156 168 182 182 158 161 171 183 185 178 173 175 182 184 184 187 186
171 170 170 170 170 168 168 169 174 177 179 180 179 179 179 181 179 177 177 178 170 162 158 158 155 150 150 153 157 162 166 168 165 161 158 156 152 148 143 140 137 137 143 150 158 161 162 160 163 165 168 165 166 177 185 181 159 162 176 192 188 182 182 190 190 185 181 181 175
172 171 172 175 175 174 173 173 175 178 180 180 179 180 181 182 178 173 167 159 154 155 157 157 154 152 152 153 158 162 165 163 161 160 160 160 159 156 152 146 146 151 158 160 163 164 163 159 160 162 164 166 175 184 186 172 158 163 177 190 185 186 190 197 189 181 174 173 173
176 177 178 179 179 178 176 173 174 175 177 174 173 174 175 171 161 152 148 149 157 161 160 153 151 151 152 152 157 160 162 161 161 161 161 161 162 159 153 150 156 162 167 168 167 163 160 154 153 157 162 168 176 184 181 164 156 158 168 174 185 194 197 195 183 170 160 156 158
179 180 181 180 179 178 175 172 171 171 169 164 161 161 158 149 145 149 155 160 162 158 152 146 144 145 148 151 156 159 163 167 168 166 161 161 160 156 154 157 162 165 167 169 164 158 152 148 150 157 162 163 172 178 173 157 153 153 160 188 199 191 175 175 158 140 132 134 137
179 180 180 179 178 176 173 169 167 163 160 155 156 156 156 152 156 160 163 161 155 151 148 146 147 149 153 158 161 164 168 172 173 169 162 158 157 157 158 162 162 165 168 166 158 154 151 149 152 160 166 165 170 174 173 163 155 156 167 200 196 167 144 151 133 124 129 143 153
179 179 178 177 176 174 170 166 162 159 159 160 161 160 159 158 162 164 163 156 156 155 155 154 156 158 160 164 167 169 170 172 173 172 165 157 156 159 160 159 162 169 173 165 159 158 159 160 161 164 169 172 175 178 176 168 159 163 176 199 190 153 134 135 128 132 142 156 173
179 178 176 174 174 171 168 164 162 161 162 164 164 163 161 162 164 164 163 162 162 160 158 159 162 162 163 165 168 170 171 171 171 170 166 159 158 160 162 162 169 176 178 173 166 163 163 165 167 172 173 174 178 181 177 168 164 171 184 194 173 137 110 108 117 129 141 156 178
177 175 173 171 172 168 164 162 162 162 162 164 164 163 163 165 167 168 168 166 160 159 160 164 163 164 165 167 169 171 172 170 167 166 165 165 165 166 168 172 175 178 180 181 173 166 163 163 170 178 186 183 181 179 177 172 171 177 184 179 149 124 103 80 99 123 143 160 181
174 172 171 171 169 164 159 159 162 163 163 163 164 165 167 170 173 173 168 158 156 162 168 169 166 166 168 171 172 173 171 169 165 164 166 171 172 173 173 175 177 178 179 181 178 170 165 166 171 181 192 198 187 180 176 174 174 177 178 158 133 124 121 103 113 135 151 163 177
171 170 168 167 162 159 157 159 163 165 165 165 166 168 172 176 177 172 164 157 162 169 174 173 169 169 170 173 173 172 169 166 163 164 168 174 177 177 177 178 180 181 180 179 177 173 171 171 174 182 191 202 197 186 177 175 175 176 175 157 134 134 145 157 164 162 153 147 160
166 165 163 160 157 156 158 161 164 167 169 170 171 173 177 182 179 171 164 164 169 172 175 175 173 172 171 173 172 170 168 167 165 166 169 175 177 178 180 183 186 186 184 180 177 177 177 179 180 183 188 197 200 193 183 176 176 177 177 169 159 158 166 172 172 163 144 133 148
161 161 160 158 157 159 162 166 169 172 175 177 178 179 181 183 180 174 170 170 172 172 171 174 177 177 175 172 170 170 169 167 166 166 169 175 178 181 184 189 191 190 188 183 180 181 183 186 186 186 188 193 196 193 184 177 176 177 176 173 175 175 175 174 169 160 151 147 158
161 162 161 159 161 165 169 171 175 179 182 184 184 183 183 183 182 178 175 173 173 170 168 171 179 183 180 173 170 168 167 165 164 166 170 176 182 187 191 193 193 192 189 186 186 188 189 190 189 187 187 189 188 183 177 174 175 174 173 172 172 172 172 172 168 164 161 158 164
165 165 164 164 168 172 176 179 181 184 186 189 187 185 183 182 181 179 177 174 170 168 167 172 178 182 181 176 169 166 164 164 164 167 172 179 188 194 197 197 195 193 191 188 191 195 196 193 186 182 180 180 176 171 168 169 171 171 170 169 167 167 168 170 168 166 166 162 168
170 171 171 172 176 179 182 184 186 187 189 191 188 186 184 180 178 179 179 175 169 169 172 178 178 177 176 177 171 165 163 165 168 173 178 184 190 195 200 201 198 195 191 188 192 196 198 192 176 164 160 161 160 161 162 164 166 167 166 165 163 164 165 168 168 167 167 166 177
177 177 178 180 183 186 187 188 188 189 189 189 187 185 183 177 176 179 182 178 172 173 177 182 180 177 175 175 174 170 168 169 176 181 186 189 191 195 198 202 200 194 189 188 191 192 191 183 167 151 143 143 147 152 156 160 163 162 161 158 160 162 165 168 169 169 169 171 186
182 184 185 188 190 191 191 191 190 190 189 186 184 182 181 178 177 179 183 185 181 179 179 181 181 180 178 175 174 175 175 176 181 187 191 193 193 195 198 201 197 190 185 185 188 186 181 172 161 152 146 142 143 146 151 155 157 157 155 153 157 161 166 172 174 174 174 176 186
187 189 192 194 195 194 194 193 192 189 186 182 180 180 181 181 179 180 184 190 190 186 182 179 180 181 181 176 175 178 183 185 185 189 194 195 195 196 198 195 187 179 175 178 179 176 171 165 160 157 153 150 149 149 150 151 150 150 149 151 156 164 171 175 176 177 178 179 184
192 194 196 197 197 197 196 194 191 187 182 179 179 181 182 182 183 185 189 191 189 187 185 181 179 180 180 178 179 184 189 191 188 190 193 193 195 195 191 178 168 164 166 172 174 172 168 165 163 161 159 157 156 155 154 151 147 147 149 153 162 168 174 175 175 177 181 184 188
197 198 198 198 198 198 196 193 188 184 181 180 180 181 182 184 188 191 191 187 184 184 185 184 182 181 182 182 184 187 189 189 188 187 186 187 190 184 171 155 155 160 168 177 177 174 171 168 166 164 162 161 161 159 156 153 149 150 154 161 167 174 179 184 182 184 188 193 195
201 200 199 199 198 196 194 190 186 183 182 181 182 183 184 188 191 191 187 179 179 183 187 188 187 187 186 186 186 185 184 182 183 180 172 169 169 162 155 150 159 169 179 184 179 174 169 168 168 167 164 161 162 160 158 154 152 154 158 165 171 179 189 201 200 198 200 204 205
204 201 199 198 195 193 190 186 184 184 185 184 184 184 186 188 188 184 178 174 178 184 190 192 193 192 190 188 185 182 179 179 180 179 173 165 162 159 159 160 171 181 187 189 183 178 172 166 168 168 167 162 162 162 161 158 157 159 162 166 171 179 191 209 213 210 209 211 214
206 202 199 197 193 190 187 184 186 188 189 188 186 185 184 183 178 174 171 173 179 186 191 195 196 193 189 185 183 181 179 177 178 177 176 176 172 168 166 171 183 192 194 192 188 184 179 171 168 166 165 162 160 160 161 162 163 164 166 167 168 171 179 201 219 221 217 215 218
205 200 198 195 190 187 187 188 189 191 191 188 185 183 180 175 168 166 168 174 182 187 191 193 193 188 183 179 179 178 178 176 174 173 175 177 176 175 177 185 195 200 198 195 191 188 183 177 169 164 161 161 159 159 162 168 170 169 167 166 165 164 167 181 207 224 230 226 224
203 199 196 191 187 188 190 191 191 191 191 188 185 181 175 164 160 163 168 176 181 185 187 188 186 182 177 175 176 178 179 177 173 173 174 175 174 179 188 199 201 202 199 196 191 187 184 178 171 166 163 163 163 164 166 171 173 171 168 167 166 166 168 177 191 205 221 237 240
200 198 193 186 188 191 192 191 191 193 193 190 183 175 164 154 156 163 170 175 177 178 181 185 180 174 170 174 180 180 177 170 167 170 173 172 175 183 192 201 202 202 198 194 189 185 182 178 174 171 170 169 168 167 166 166 169 172 173 173 173 173 175 180 186 191 201 221 239
193 191 188 186 190 192 192 191 195 196 194 186 175 163 156 154 160 166 170 173 174 178 182 184 172 165 165 177 180 174 162 154 159 165 170 171 183 194 200 202 202 201 197 191 186 183 181 179 177 178 178 176 173 170 167 165 168 173 177 181 181 181 182 184 185 189 194 205 220
185 184 185 188 190 191 191 194 197 196 188 174 164 158 156 159 164 169 173 176 180 182 182 172 161 162 168 174 166 157 151 154 161 163 166 173 192 205 210 205 201 199 195 188 184 182 182 181 183 184 184 181 173 167 166 166 168 173 179 186 188 188 187 186 187 190 195 201 208
179 180 183 187 189 190 192 195 195 189 177 164 161 160 161 166 172 176 179 181 180 173 160 148 149 155 161 163 158 156 157 160 163 166 172 182 196 205 207 201 195 193 191 186 183 183 185 187 189 189 187 182 174 170 169 171 172 176 181 187 191 191 190 188 190 193 196 198 201
178 179 182 185 188 190 190 190 186 177 168 162 163 164 167 172 176 177 176 171 159 147 140 142 146 150 154 162 163 159 156 156 167 177 186 190 195 197 194 186 184 187 189 186 186 189 192 195 195 193 189 182 176 172 172 172 176 179 183 188 191 192 192 190 193 197 199 198 198
177 178 181 185 187 187 184 180 174 168 164 164 165 168 169 171 167 160 153 145 143 145 149 153 151 152 155 160 155 151 154 164 179 187 190 190 185 179 173 171 179 187 191 190 194 198 201 202 199 195 189 183 177 173 172 172 175 179 185 192 195 195 194 192 196 199 200 200 197
175 177 179 183 183 181 176 171 166 163 162 164 166 167 165 161 154 149 144 142 145 150 154 152 148 146 145 145 141 147 159 176 183 185 182 174 165 160 162 173 184 192 196 199 205 208 209 206 201 195 190 183 176 171 169 171 175 183 192 201 205 204 202 201 202 202 201 199 196
173 173 176 179 178 174 169 165 161 161 162 164 165 163 160 155 153 152 151 148 145 142 138 130 123 119 119 123 135 149 164 179 180 175 165 156 153 158 170 187 196 202 205 210 214 215 213 208 202 196 190 182 173 169 170 174 181 190 198 205 211 213 213 212 213 210 206 199 195
170 170 171 173 172 169 166 163 161 162 163 165 162 159 156 153 152 150 149 143 137 130 122 112 109 112 120 135 151 166 174 177 171 161 153 149 155 166 182 202 216 219 219 219 220 218 214 208 203 197 190 179 171 171 176 181 188 195 201 208 216 219 219 216 216 215 210 204 199
166 166 167 170 170 169 166 162 162 164 166 165 161 157 153 148 146 145 142 135 130 126 121 116 120 132 149 166 177 181 178 167 155 150 151 158 166 178 197 220 233 235 231 227 223 218 213 208 203 198 191 178 175 178 184 189 193 200 206 215 223 225 224 219 217 215 212 209 206
164 165 167 170 170 169 165 162 163 164 165 162 157 152 147 143 142 143 141 136 133 131 129 129 140 156 170 176 178 176 168 156 151 153 161 174 183 195 213 231 241 243 239 231 223 217 212 208 204 198 192 181 181 184 188 191 197 204 213 221 228 231 230 225 220 218 218 217 215
164 167 169 170 167 163 159 157 158 158 156 151 146 143 141 140 143 145 144 138 136 137 140 146 158 169 173 169 165 162 160 161 162 167 178 192 203 212 223 235 244 247 243 233 222 216 212 210 206 200 194 186 185 187 188 190 198 207 217 224 232 237 239 233 224 223 226 230 226
164 165 165 163 157 152 148 147 148 147 144 140 140 140 141 141 142 142 139 131 131 135 141 152 160 163 159 154 155 161 169 178 184 192 201 212 221 227 232 238 246 250 248 237 224 217 213 211 208 203 197 190 188 187 188 187 197 209 219 227 231 236 240 237 227 224 228 237 234
155 154 152 149 144 140 137 136 135 133 133 135 138 139 139 138 136 133 128 121 120 124 133 145 150 151 150 150 157 170 186 204 211 215 219 225 234 238 241 243 249 252 251 240 227 220 215 212 210 206 200 193 188 186 184 183 196 210 222 228 227 229 234 238 234 230 229 232 234